"Pseudo-MPEC" for P10Yd5f

Created 2020 Mar 29 1:07:15 UT using Find_Orb

Click here for an explanation of pseudo-MPECs

 
 Astrometry: 
     P10Yd5f  C2020 03 25^WjB*JjQ]g1dE]6s,u@U43Vbb8AstrometryHJl,[\(e`spC`\D$F51
     P10Yd5f  C2020 03 25'[;gjtw.bdJL0rQY28aRxZredacted;Bt^@ye!n?B^m?GV)e0vS;F51
     P10Yd5f  C2020 03 25R2MksYi.\1(@+'`,uYO4MH[)R/PW)(^tc0OltZtZAInJ]ArJ$s3@F51
     P10Yd5f  C2020 03 27.05644 14 51 00.37 +01 09 47.1    ~3R2q 22.6 VVNEOCP033
     P10Yd5f  C2020 03 27.06003 14 51 00.51 +01 09 44.9    ~3R2q 22.3 VVNEOCP033
     P10Yd5f  C2020 03 27.06361 14 51 00.56 +01 09 43.7    ~3R2q 21.7 VVNEOCP033
     P10Yd5f  C2020 03 27.06732 14 51 00.54 +01 09 41.5    ~3R2q 21.9 VVNEOCP033
     P10Yd5f  C2020 03 28.04530 14 51 27.53 +00 59 23.6    ~3S1b 20.5 VVNEOCP033
     P10Yd5f  C2020 03 28.04888 14 51 27.59 +00 59 21.4    ~3S1b 20.7 VVNEOCP033
     P10Yd5f  C2020 03 28.05246 14 51 27.64 +00 59 18.9    ~3S1b 20.8 VVNEOCP033
     P10Yd5f KC2020 03 28I*wR2\L4jxT?k(S?=th1DLR=DVA=ibgs9s,uFtO6M)/rfb7)]Y:'L01
     P10Yd5f KC2020 03 28_Fx*t!k\h?ub%KbSR^aRJ#CS`#GBbm@FonH:P63R8+nl+FrCa%meL01
     P10Yd5f KC2020 03 28H%KGGhnB4c6\XAMk!%*,NPkN56'(UP]Z!*\iS$Xn:N5g@jG$vu.BL01
     P10Yd5f FC2020 03 28#0Wm89Hhv]C[?g4wE*k_clickY['SKNhere1#?DO!NAnvck3-,t:246
     P10Yd5f FC2020 03 28)sDO2Wd9diAuEDni%forxDS?9))^=jdIX-76explanationI4Tcx246
     P10Yd5f  C2020 03 28.95931 14 51 51.47 +00 49 00.5    ~3SNq 21.5 VVNEOCP033
     P10Yd5f  C2020 03 28.96289 14 51 51.56 +00 48 57.8    ~3SNq 21.0 VVNEOCP033

Station data:
(033) Karl Schwarzschild Observatory, Tautenburg  (N50.980140 E11.711240)
   Germany. 1.3-m Schmidt.
(246) Klet Observatory-KLENOT  (N48.863293 E14.288100)  Czech Republic.
   1.06-m KLENOT telescope.
(F51) Pan-STARRS 1, Haleakala  (N20.707235 W156.255910)  US/Hawaii.
   Observers N. Primak, A. Schultz, S. Watters, J. Thiel, T. Goggia. Measurer
   PS1 Science Consortium. 1.8-m Ritchey-Chrétien + CCD.
(L01) Višnjan Observatory, Tičan  (N45.290900 E13.749300)  Croatia.
   Observers K. Korlević, E. Pettarin. Measurer E. Pettarin. 1.0-m f/2.9
   reflector + CCD.

Orbital elements:  P10Yd5f
   Perihelion 2020 Jun 23.207104 +/- 0.43 TT =  4:58:13 (JD 2459023.707104)
Epoch 2020 Mar 28.0 TT = JDT 2458936.5   Earth MOID: 0.0046   Ve: 0.0950
M 307.34691803 +/- 1.4              (J2000 ecliptic)          AutoNEOCP
n   0.60377056 +/- 0.014            Peri.  274.86601 +/- 0.48
a   1.38639854 +/- 0.0214           Node    30.86414 +/- 0.12
e   0.4949849 +/- 0.00863           Incl.   15.06020 +/- 0.23
P   1.63/596.24d           H 22.1   G  0.15   U  9.9  
q 0.70015208 +/- 0.00354    Q 2.07264499 +/- 0.0442
From 17 observations 2020 Mar. 25-28; mean residual 0".53
Residuals in arcseconds: 
200325 F51  .13-  .02+    200327 033  1.0-  .47+    200328 L01  .30+  .27+    
200325 F51  .20+  .01+    200328 033  .44-  .30-    200328 246  .19-  .65+    
200325 F51  .15-  .04-    200328 033  .58-  .15-    200328 246  .27-  .87+    
200327 033  .10-  .52-    200328 033  .87-  .31-    200328 033  .07+  1.1-    
200327 033  .85+  .55-    200328 L01  .52+  .37+    200328 033  .41+  1.3-    
200327 033  .45+  .42+    200328 L01  .53+  .10+    

Ephemerides (geocentric):
Date (UTC) HH   RA              Dec         delta   r     elong  mag " sig PA
---- -- -- --  -------------   -----------  ------ ------ -----  --- ---- ---
2020 03 29 01  14 51 52.741   +00 48 24.78  .31292 1.2666 144.6 21.3 .441 126
2020 03 29 02  14 51 53.758   +00 47 55.12  .31245 1.2663 144.7 21.3 .454 123
2020 03 29 03  14 51 54.771   +00 47 25.37  .31198 1.2660 144.7 21.3 .469 120
2020 03 29 04  14 51 55.781   +00 46 55.51  .31151 1.2657 144.7 21.3 .485 117
2020 03 29 05  14 51 56.787   +00 46 25.55  .31104 1.2653 144.8 21.3 .503 114
2020 03 29 06  14 51 57.789   +00 45 55.48  .31058 1.2650 144.8 21.3 .522 111
2020 03 29 07  14 51 58.788   +00 45 25.31  .31011 1.2647 144.8 21.3 .543 108
2020 03 29 08  14 51 59.783   +00 44 55.04  .30964 1.2644 144.9 21.2 .566 105
2020 03 29 09  14 52 00.775   +00 44 24.66  .30917 1.2640 144.9 21.2 .590 103
2020 03 29 10  14 52 01.763   +00 43 54.18  .30870 1.2637 144.9 21.2 .615 101
2020 03 29 11  14 52 02.748   +00 43 23.59  .30823 1.2634 145.0 21.2 .642  99
2020 03 29 12  14 52 03.728   +00 42 52.89  .30776 1.2631 145.0 21.2 .670  97
2020 03 29 13  14 52 04.706   +00 42 22.09  .30730 1.2627 145.0 21.2 .699  95
2020 03 29 14  14 52 05.679   +00 41 51.18  .30683 1.2624 145.1 21.2 .730  93
2020 03 29 15  14 52 06.649   +00 41 20.17  .30636 1.2621 145.1 21.2 .762  91
2020 03 29 16  14 52 07.616   +00 40 49.04  .30589 1.2618 145.1 21.2 .795  90
2020 03 29 17  14 52 08.579   +00 40 17.81  .30543 1.2614 145.2 21.2 .829  88
2020 03 29 18  14 52 09.538   +00 39 46.46  .30496 1.2611 145.2 21.2 .865  87
2020 03 29 19  14 52 10.493   +00 39 15.01  .30449 1.2608 145.2 21.2 .901  85
2020 03 29 20  14 52 11.445   +00 38 43.45  .30403 1.2605 145.3 21.2 .939  84
2020 03 29 21  14 52 12.393   +00 38 11.77  .30356 1.2601 145.3 21.2 .977  83
2020 03 29 22  14 52 13.338   +00 37 39.99  .30309 1.2598 145.3 21.2 1.02  82
2020 03 29 23  14 52 14.279   +00 37 08.09  .30263 1.2595 145.4 21.2 1.06  81
2020 03 30 00  14 52 15.216   +00 36 36.08  .30216 1.2592 145.4 21.2 1.10  80
2020 03 30 01  14 52 16.149   +00 36 03.96  .30169 1.2588 145.4 21.2 1.14  79
2020 03 30 02  14 52 17.079   +00 35 31.73  .30123 1.2585 145.5 21.2 1.19  78
2020 03 30 03  14 52 18.005   +00 34 59.38  .30076 1.2582 145.5 21.2 1.23  77
2020 03 30 04  14 52 18.928   +00 34 26.92  .30030 1.2579 145.5 21.2 1.28  76
2020 03 30 05  14 52 19.846   +00 33 54.34  .29983 1.2575 145.6 21.2 1.32  75
2020 03 30 06  14 52 20.761   +00 33 21.65  .29937 1.2572 145.6 21.2 1.37  75
2020 03 30 07  14 52 21.673   +00 32 48.84  .29890 1.2569 145.6 21.1 1.42  74
2020 03 30 08  14 52 22.580   +00 32 15.91  .29843 1.2566 145.7 21.1 1.47  73
2020 03 30 09  14 52 23.484   +00 31 42.87  .29797 1.2562 145.7 21.1 1.52  73
2020 03 30 10  14 52 24.384   +00 31 09.71  .29751 1.2559 145.7 21.1 1.57  72
2020 03 30 11  14 52 25.281   +00 30 36.44  .29704 1.2556 145.8 21.1 1.62  71
2020 03 30 12  14 52 26.174   +00 30 03.04  .29658 1.2552 145.8 21.1 1.68  71
2020 03 30 13  14 52 27.062   +00 29 29.53  .29611 1.2549 145.8 21.1 1.73  70
2020 03 30 14  14 52 27.948   +00 28 55.89  .29565 1.2546 145.9 21.1 1.79  70
2020 03 30 15  14 52 28.829   +00 28 22.14  .29518 1.2543 145.9 21.1 1.84  69
2020 03 30 16  14 52 29.707   +00 27 48.26  .29472 1.2539 145.9 21.1 1.90  69
2020 03 30 17  14 52 30.581   +00 27 14.27  .29426 1.2536 146.0 21.1 1.96  68
2020 03 30 18  14 52 31.451   +00 26 40.15  .29379 1.2533 146.0 21.1 2.02  68
2020 03 30 19  14 52 32.317   +00 26 05.91  .29333 1.2530 146.0 21.1 2.08  67
2020 03 30 20  14 52 33.180   +00 25 31.55  .29286 1.2526 146.1 21.1 2.14  67
2020 03 30 21  14 52 34.038   +00 24 57.06  .29240 1.2523 146.1 21.1 2.20  66
2020 03 30 22  14 52 34.893   +00 24 22.45  .29194 1.2520 146.1 21.1 2.26  66
2020 03 30 23  14 52 35.745   +00 23 47.72  .29148 1.2516 146.2 21.1 2.33  66
2020 03 31 00  14 52 36.592   +00 23 12.86  .29101 1.2513 146.2 21.1 2.39  65